This demonstration page uses our WeatherBlox Daily Observations layout. Learn more.

36.17497, -115.13722

Hourly Observations for July 2, 2020

Temp ( °F °C ) Dew Point ( °F °C ) Humidity (%) Winds ( mph kmh ) Pressure ( in mb ) Visibility ( mi km ) Precip ( " mm )
12:53 am 00:53 Clear 86 30 35 1.7 16 16 S 8 13 29.74 1007 10 16.0934 0 0
1:53 am 01:53 Clear 85 29.4 35 1.7 17 17 S 7 11 29.74 1007 10 16.0934 0 0
2:53 am 02:53 Clear 84 28.9 36 2.2 18 18 S 9 15 29.75 1007 10 16.0934 0 0
3:53 am 03:53 Clear 83 28.3 35 1.7 18 18 S 8 13 29.76 1008 10 16.0934 0 0
4:53 am 04:53 Clear 79 26.1 37 2.8 22 22 ESE 5 7 29.78 1009 10 16.0934 0 0
5:53 am 05:53 Sunny 78 25.6 36 2.2 22 22 SE 6 9 29.8 1009 10 16.0934 0 0
6:53 am 06:53 Sunny 81 27.2 38 3.3 21 21 E 6 9 29.83 1010 10 16.0934 0 0
7:53 am 07:53 Sunny 84 28.9 38 3.3 19 19 E 8 13 29.84 1011 10 16.0934 0 0
8:53 am 08:53 Sunny 89 31.7 36 2.2 15 15 SSE 12 19 29.85 1011 10 16.0934 0 0
9:53 am 09:53 Sunny 91 32.8 40 4.4 17 17 SE 14 22 29.86 1011 10 16.0934 0 0
10:53 am 10:53 Sunny 93 33.9 40 4.4 16 16 SSE 12 19 29.85 1011 10 16.0934 0 0
11:53 am 11:53 Sunny 95 35 41 5 15 15 ESE 17 28 29.84 1011 10 16.0934 0 0
12:53 pm 12:53 Sunny 98 36.7 39 3.9 13 13 E 15 24 29.83 1010 10 16.0934 0 0
1:53 pm 13:53 Sunny 98 36.7 38 3.3 12 12 Calm 29.8 1009 10 16.0934 0 0
2:53 pm 14:53 Sunny 100 37.8 34 1.1 10 10 S 14 22 29.79 1009 10 16.0934 0 0
3:53 pm 15:53 Sunny 101 38.3 32 0 9 9 SSE 16 26 29.78 1008 10 16.0934 0 0
4:53 pm 16:53 Sunny 101 38.3 30 -1.1 8 8 SSE 12 19 29.76 1008 10 16.0934 0 0
5:53 pm 17:53 Sunny 101 38.3 27 -2.8 7 7 SSE 18 30 29.75 1008 10 16.0934 0 0
6:53 pm 18:53 Sunny 100 37.8 26 -3.3 7 7 S 13 20 29.75 1008 10 16.0934 0 0
7:53 pm 19:53 Sunny 97 36.1 28 -2.2 9 9 S 13 20 29.76 1008 10 16.0934 0 0
8:53 pm 20:53 Clear 95 35 33 0.6 11 11 S 10 17 29.78 1009 10 16.0934 0 0
9:53 pm 21:53 Clear 93 33.9 32 0 11 11 S 13 20 29.82 1010 10 16.0934 0 0
10:53 pm 22:53 Clear 91 32.8 32 0 12 12 S 8 13 29.83 1010 10 16.0934 0 0
11:53 pm 23:53 Clear 89 31.7 31 -0.6 12 12 SSW 6 9 29.83 1010 10 16.0934 0 0

Powered by AerisWeather